GEFSMA_500_meanwind_192.txt.gz
Wind_Speed
1 1 1 1 1 1 1 1 1 1 2 2 3 3 3 3 3 3 3 3 3 3 4 4 3 3 3 3 3 3 3 3 3 3 2 1 0 0 1 1 1 1 1
0 0 1 1 1 0 0 0 0 0 0 1 2 2 2 2 3 2 2 3 3 3 3 3 3 2 2 2 2 3 3 3 3 3 2 1 1 1 1 2 2 2 3
1 1 1 1 1 1 1 1 1 0 0 1 1 1 2 2 2 2 2 3 3 3 3 3 3 2 2 2 3 3 3 3 3 3 2 2 1 1 2 2 3 3 4
3 2 2 2 2 2 2 2 2 1 1 1 1 2 2 2 2 2 2 3 3 3 3 3 3 3 3 3 3 3 3 3 3 3 3 3 3 3 3 3 3 4 4
4 4 4 4 4 3 3 3 3 3 3 2 2 2 2 2 3 2 2 3 3 3 3 4 4 4 4 4 4 4 4 4 4 4 4 4 4 4 4 4 5 5 5
4 5 5 5 5 5 4 4 4 4 4 4 4 4 4 4 4 4 4 4 4 4 5 5 5 5 5 5 5 5 5 5 6 6 6 6 6 6 6 6 7 7 7
5 6 6 7 6 6 6 5 5 5 5 6 6 6 6 6 6 6 7 6 7 6 6 6 7 7 7 7 7 7 7 7 8 8 8 8 8 8 8 9 9 10 10
7 7 7 7 7 8 7 7 7 7 7 7 8 8 8 8 8 8 8 8 8 9 8 9 8 9 9 9 9 9 10 10 10 10 10 10 10 10 11 12 12 12 12
8 8 8 8 8 8 8 8 8 8 8 9 9 9 9 10 10 10 11 11 11 11 11 11 11 11 11 11 11 12 12 12 12 12 12 13 13 13 14 14 15 15 15
9 9 9 8 8 9 9 9 10 10 10 10 10 11 11 11 11 11 12 12 13 13 14 13 14 13 13 14 14 14 14 14 14 15 15 15 15 16 16 16 17 17 18
9 9 9 9 9 9 9 10 10 11 11 11 11 12 12 12 13 13 13 14 14 14 15 15 15 15 16 16 16 16 17 17 17 17 17 18 18 18 19 19 19 20 20
9 9 8 9 9 9 9 10 11 11 12 13 13 13 13 14 15 15 15 15 16 16 16 17 17 17 17 17 17 17 18 19 19 19 20 20 21 21 21 21 21 22 23
9 9 10 10 10 10 11 11 11 12 14 14 14 15 16 16 16 17 17 17 17 18 18 19 20 19 19 19 19 19 20 20 20 21 22 22 22 22 23 23 23 23 24
10 10 10 10 10 10 11 12 13 14 14 15 16 17 17 17 18 18 19 19 18 19 20 20 20 20 19 20 19 20 21 21 22 22 22 23 23 24 24 24 24 24 25
12 11 11 11 11 11 12 12 13 14 14 15 16 17 18 18 19 20 20 20 20 21 21 22 22 21 21 21 21 22 23 23 23 24 24 25 25 25 25 25 26 26 27
12 12 12 12 12 12 12 13 13 14 15 16 17 17 18 19 19 20 21 21 21 21 21 22 23 22 22 22 23 23 24 24 25 25 26 27 27 27 27 27 28 29 30
13 13 13 13 13 13 13 14 14 15 16 17 18 18 19 20 20 21 21 21 22 22 22 22 23 24 24 24 24 25 25 25 26 27 28 28 28 29 30 30 31 31 32
13 13 13 14 14 14 15 15 15 16 17 17 18 19 20 20 21 21 22 22 23 23 23 23 24 25 25 25 25 25 25 26 26 28 29 29 30 31 31 32 32 33 33
14 14 14 15 15 16 16 16 16 16 17 17 18 19 19 20 21 22 22 22 23 23 24 24 24 24 24 25 26 27 27 27 28 29 29 31 31 32 31 32 33 34 34
15 14 14 15 15 15 16 17 17 17 17 18 19 20 21 21 21 22 22 22 23 23 23 23 23 24 25 26 27 28 28 28 30 30 31 32 33 33 33 34 35 35 36
15 16 16 16 16 16 16 17 17 18 18 19 20 20 21 21 22 23 22 23 23 23 24 24 24 25 26 26 27 28 28 29 30 31 33 33 33 33 33 35 36 36 37
16 16 17 17 17 17 18 18 18 19 20 21 21 22 22 23 23 23 23 24 24 24 24 25 26 26 26 27 28 29 30 30 31 33 33 34 35 34 35 36 36 37 38
16 17 17 17 17 18 19 19 20 20 21 21 22 22 23 23 24 25 25 25 25 25 26 26 26 27 27 28 29 29 30 31 33 33 34 35 35 36 37 37 37 38 39
17 17 17 18 18 18 19 19 20 21 22 22 23 23 24 25 25 25 25 26 26 26 27 28 28 29 29 30 30 31 32 32 33 34 35 36 37 37 38 38 38 38 37
18 18 18 18 19 19 19 20 21 22 22 23 24 24 25 26 26 26 26 26 27 27 28 29 30 30 30 31 31 32 32 33 33 34 35 37 37 37 37 37 36 36 36
19 18 19 19 19 20 20 21 22 23 23 23 24 25 25 26 26 25 26 27 27 28 29 29 30 30 30 31 32 32 33 33 34 34 35 37 37 36 36 36 35 35 36

GEFSMA_500_meanwind_198.txt.gz
Wind_Speed
4 3 3 3 3 3 3 3 3 3 3 3 3 3 3 3 3 3 3 3 3 3 3 2 2 2 2 3 3 2 2 2 2 1 1 0 1 2 3 3 3 3 3
3 3 3 3 2 2 2 2 3 3 3 3 3 2 2 2 2 2 2 2 2 2 2 2 1 1 2 2 2 2 2 2 1 1 1 1 1 2 2 3 4 4 5
2 2 2 2 2 1 2 2 2 2 2 2 2 2 2 1 1 1 1 1 2 1 1 2 2 2 2 2 2 2 2 2 2 2 2 2 2 3 3 4 5 5 6
2 1 1 1 1 1 1 1 1 1 1 0 0 0 0 1 0 0 1 2 2 3 3 3 3 3 3 3 3 3 3 3 3 3 3 3 4 4 5 5 6 6 7
1 0 1 1 1 1 1 1 2 2 2 2 2 2 1 1 2 2 2 3 4 4 4 5 5 5 5 5 5 5 5 5 5 5 5 5 5 6 6 6 7 7 8
0 1 2 2 2 2 2 3 3 3 3 3 3 3 3 3 3 4 5 5 6 6 6 7 7 7 7 7 7 7 7 7 7 7 7 7 8 8 9 9 9 9 10
1 2 2 2 3 3 3 4 4 4 4 4 4 5 5 5 6 6 6 7 7 8 8 8 9 9 9 9 9 9 9 10 10 10 10 10 10 10 11 11 11 12 12
2 3 4 3 4 5 5 5 5 5 6 5 6 6 7 7 7 7 8 8 9 10 10 11 12 12 11 11 11 11 11 12 12 12 12 12 13 13 13 13 14 14 14
4 4 5 5 5 6 6 7 7 7 7 7 7 7 8 9 9 9 10 10 11 11 12 12 13 13 13 13 13 13 14 14 14 14 14 14 15 15 15 15 16 17 17
6 6 6 6 6 7 7 7 7 8 9 9 9 9 9 10 10 11 11 12 13 13 13 13 14 14 15 15 15 15 16 16 16 15 15 16 16 17 17 17 18 19 19
6 7 7 7 7 7 8 8 9 9 10 10 11 11 11 11 11 12 13 13 14 15 15 15 15 15 16 17 18 18 18 17 17 17 18 18 19 19 19 20 20 20 20
6 7 7 7 7 8 9 9 10 11 11 11 12 12 13 13 13 14 14 15 15 16 16 17 17 18 18 19 18 19 19 19 19 19 20 20 20 20 21 21 21 21 22
6 7 6 6 7 8 9 9 10 11 12 12 13 13 14 15 15 15 16 16 17 18 18 18 18 18 19 19 19 19 19 20 20 20 21 22 22 22 23 23 23 24 25
8 8 8 8 8 9 10 10 10 11 12 12 13 14 15 15 16 16 16 17 18 18 19 19 19 19 20 20 21 21 20 20 21 22 23 23 23 23 24 25 26 26 26
10 10 10 9 10 10 10 11 11 11 12 12 13 14 16 16 16 16 17 17 17 18 19 20 21 21 21 21 21 21 22 22 22 23 23 24 25 25 26 27 27 28 29
11 11 10 10 10 10 10 11 11 11 11 12 13 14 14 14 15 17 17 17 17 17 18 19 20 21 21 21 22 22 23 23 24 24 25 26 26 27 28 28 28 30 31
11 11 10 9 9 9 10 11 12 13 13 13 14 14 13 14 15 16 17 18 18 18 18 19 21 21 22 23 24 23 22 23 24 25 26 27 27 29 30 30 31 32 32
11 11 10 10 10 10 12 12 13 14 14 14 14 14 15 15 16 16 16 17 18 18 19 20 21 22 22 23 24 24 24 24 24 25 27 28 29 30 31 32 33 34 35
11 11 10 11 11 12 12 12 12 13 14 14 15 15 16 17 17 17 18 18 19 20 20 20 21 21 22 22 23 23 24 25 26 27 28 30 31 32 32 33 34 35 36
11 11 11 11 12 12 12 12 12 13 14 15 15 16 17 18 19 19 20 20 20 20 21 21 21 22 22 23 24 24 25 27 28 29 30 31 31 32 33 33 33 34 36
12 12 11 11 12 13 12 13 14 15 15 16 16 17 18 19 19 20 20 21 22 22 22 23 23 23 24 25 26 27 27 28 29 30 31 31 31 32 33 34 35 35 36
13 13 13 13 14 13 13 14 15 15 15 16 17 18 19 19 20 20 21 21 22 22 22 23 23 24 25 26 27 28 28 29 30 30 32 32 32 33 34 35 35 36 38
13 14 14 15 15 15 15 15 15 15 16 16 17 18 20 20 21 21 21 22 23 23 24 25 25 26 27 27 28 28 29 29 30 30 31 33 33 34 35 36 36 37 38
14 15 14 15 15 15 15 15 16 16 17 18 19 19 20 21 22 22 23 23 24 25 25 25 26 27 27 28 29 29 29 29 30 31 32 33 33 34 35 36 36 37 37
14 14 14 15 15 15 15 16 17 18 19 19 19 20 21 22 22 23 24 24 25 26 26 27 27 27 28 29 29 29 29 30 30 31 32 33 33 34 35 35 36 36 36
13 14 14 14 14 15 16 17 17 18 19 19 20 21 21 22 23 24 25 25 26 26 26 26 27 28 28 29 29 29 30 31 31 32 33 33 34 35 35 36 37 37 36

GEFSMA_500_meanwind_204.txt.gz
Wind_Speed
5 5 4 4 5 4 4 4 3 3 3 2 2 2 2 3 3 3 3 3 3 3 3 4 3 3 3 4 4 3 3 2 2 2 2 1 1 2 3 3 4 4 4
4 4 4 4 3 3 3 3 3 2 2 2 2 2 2 1 1 2 2 2 2 2 3 3 3 3 3 4 4 4 4 3 3 3 2 3 2 3 3 4 4 5 5
4 4 3 3 2 2 2 2 2 2 1 1 1 1 1 1 1 1 2 2 2 3 3 3 3 4 4 4 5 5 5 5 4 4 4 4 4 4 5 5 5 6 6
3 2 2 2 1 1 2 2 1 0 1 1 1 2 2 3 2 2 3 3 4 4 5 5 5 5 6 6 6 6 6 6 6 6 5 6 6 6 6 7 7 7 8
2 1 1 1 1 1 2 2 2 2 2 2 2 3 4 4 3 4 4 5 5 6 6 6 7 7 7 7 7 8 8 8 8 8 8 7 8 8 8 9 9 9 9
2 1 1 1 1 2 2 3 3 3 3 4 4 5 5 5 6 6 6 6 6 7 7 8 8 9 9 9 9 9 9 10 10 10 10 10 10 10 10 11 11 11 11
2 3 3 2 2 2 3 4 4 5 5 5 6 6 7 7 7 8 8 8 8 9 9 10 10 10 10 11 11 11 11 11 11 12 13 13 13 13 12 13 13 13 14
3 4 4 4 4 4 4 5 6 6 7 6 7 8 8 9 9 9 10 10 11 11 11 12 12 12 12 12 13 13 13 13 13 13 14 14 14 15 14 14 14 14 15
3 5 5 6 5 6 6 7 8 8 8 8 9 9 10 11 11 12 12 12 12 13 13 13 13 14 14 14 15 15 15 16 16 16 16 16 16 16 16 16 16 17 18
4 5 6 7 7 7 8 9 9 9 10 10 10 11 12 12 13 13 14 14 14 14 15 15 15 15 15 16 16 16 17 17 17 17 18 19 19 19 19 19 19 19 19
5 5 6 7 9 9 10 10 11 11 11 12 12 13 13 14 14 15 15 16 16 16 16 16 17 17 17 17 18 18 18 18 19 19 19 19 19 20 20 21 21 21 21
6 6 7 7 9 10 11 11 12 12 13 13 13 14 14 15 15 16 16 17 18 18 18 18 18 18 18 19 19 20 20 20 20 19 20 19 20 21 21 21 22 22 22
7 8 8 8 10 11 11 11 12 13 13 13 14 15 15 15 16 16 17 18 18 19 19 19 19 19 19 19 20 20 21 21 21 20 21 22 22 23 23 23 23 24 25
8 8 8 9 10 11 11 12 12 12 13 14 14 15 16 16 16 17 17 17 18 19 20 21 20 20 20 20 21 21 22 22 22 23 24 24 24 25 25 25 25 25 25
10 10 9 9 10 11 12 12 13 13 13 13 14 15 15 15 15 16 16 16 17 18 19 20 21 21 21 22 22 22 23 24 24 24 24 24 24 25 25 26 27 27 28
11 11 11 11 11 11 11 12 13 13 13 13 14 14 14 14 15 15 15 15 16 17 19 20 21 22 22 23 24 24 24 24 25 25 26 26 27 27 27 28 29 30 31
11 11 11 11 12 12 13 13 13 14 14 14 14 14 14 15 15 16 16 16 17 18 18 20 22 23 23 24 24 24 25 25 26 26 27 28 28 29 30 31 31 32 32
12 12 12 13 13 13 13 13 13 13 14 14 14 14 15 16 16 17 17 18 19 19 20 21 22 23 23 24 25 25 26 26 27 27 27 28 30 31 31 32 32 33 34
14 14 14 14 14 14 14 13 14 15 14 14 15 15 16 17 18 19 19 20 21 21 21 22 22 23 24 24 24 25 26 27 28 29 30 30 31 32 33 33 33 34 35
16 16 16 15 15 15 15 14 15 15 15 15 16 17 17 18 19 20 21 22 23 23 23 24 24 24 25 26 26 27 28 28 29 30 31 31 32 32 33 33 33 33 34
18 17 17 17 16 16 16 16 16 16 16 17 18 18 19 19 20 21 23 24 25 25 25 26 26 26 27 27 27 29 29 29 30 30 31 32 32 32 32 32 33 33 34
18 18 18 17 16 16 16 16 16 17 17 18 19 19 20 20 21 22 23 24 25 25 25 26 27 28 28 29 30 30 31 31 31 31 32 32 32 32 33 33 32 33 35
16 16 17 17 16 16 16 16 17 17 18 19 20 21 21 21 22 23 23 24 25 25 26 27 28 29 29 30 30 31 31 31 31 31 31 31 32 32 32 33 33 34 35
16 16 16 16 16 16 16 16 17 18 19 20 21 21 22 23 24 24 25 25 26 26 27 28 28 29 29 29 30 30 31 31 30 31 31 32 32 33 34 34 34 35 36
15 15 15 15 16 16 16 16 17 18 19 20 20 21 22 23 24 24 25 26 27 27 28 29 29 29 29 30 30 30 30 30 31 32 33 33 33 34 35 36 36 36 36
15 14 15 15 15 15 15 16 17 18 18 19 20 21 22 23 24 24 25 26 27 27 28 28 28 29 29 30 30 30 31 31 33 33 34 35 35 35 36 37 37 37 37

GEFSMA_500_meanwind_210.txt.gz
Wind_Speed
5 5 4 5 5 5 5 5 5 4 4 3 3 3 3 3 3 2 2 2 2 3 3 3 3 3 2 2 3 3 2 2 2 2 3 3 4 4 4 5 5 5 5
4 4 4 5 5 4 4 4 4 4 3 3 3 3 2 2 2 1 1 1 2 2 2 2 2 2 3 3 3 3 3 3 4 4 4 4 5 5 6 6 6 6 6
3 3 3 4 4 3 3 2 3 2 2 2 1 1 1 1 1 1 1 1 2 2 3 3 3 3 4 4 5 5 5 5 5 5 5 6 6 7 8 8 8 8 8
2 2 2 2 2 3 2 2 2 2 2 1 0 0 1 1 1 2 2 3 3 4 4 4 4 5 5 6 6 6 7 7 7 7 7 7 8 8 9 10 10 10 10
2 2 1 1 2 2 2 2 1 1 1 2 2 2 2 3 3 4 4 4 5 5 5 5 6 6 7 7 7 8 8 9 9 9 9 8 9 10 10 10 11 11 12
2 2 2 2 2 2 2 2 2 2 2 3 3 4 4 4 5 5 5 6 6 7 7 7 7 8 8 9 9 10 10 10 11 11 11 11 10 11 12 12 13 14 14
1 2 3 3 3 3 3 3 4 4 4 4 5 5 5 6 6 6 7 7 8 9 9 9 10 10 11 11 11 11 12 13 13 13 13 13 13 13 14 14 15 16 16
2 3 4 4 4 5 5 5 5 5 5 5 6 7 7 8 8 8 8 9 10 10 11 11 11 12 12 13 13 13 13 14 14 14 14 14 15 16 17 17 17 17 18
5 5 5 5 6 6 7 7 6 6 7 7 8 9 9 10 11 11 11 11 11 11 12 12 12 13 14 14 14 15 15 15 15 15 16 16 16 17 18 19 19 19 19
5 6 6 7 8 8 8 9 8 9 9 10 10 11 11 12 13 13 13 13 13 14 14 14 14 15 15 15 16 17 17 17 16 17 17 18 18 18 19 19 19 20 21
6 7 7 8 9 9 9 10 10 11 11 12 12 13 13 13 14 14 15 16 16 16 16 16 16 16 17 16 17 17 18 18 18 18 19 20 20 21 21 21 21 21 22
7 7 8 8 9 9 10 11 11 12 12 12 13 13 13 13 14 14 15 16 17 17 17 17 17 16 17 17 18 18 19 19 20 20 20 21 21 21 21 23 23 24 24
8 8 9 9 9 9 10 10 11 11 12 13 13 13 13 13 13 14 15 15 16 17 17 17 17 17 18 18 19 19 20 21 21 22 21 22 22 22 23 24 24 25 25
8 9 9 8 8 9 9 10 10 11 12 13 13 13 13 13 14 14 15 16 16 17 18 18 18 18 19 19 20 20 21 22 22 22 23 23 23 24 25 25 26 27 27
10 10 10 9 9 9 10 10 10 11 12 12 13 14 14 14 14 15 15 16 16 17 18 18 19 20 20 20 21 21 22 22 23 23 24 24 25 26 26 27 27 28 30
11 12 12 11 11 11 11 11 12 12 12 13 13 13 13 14 14 14 14 15 16 17 17 19 20 21 21 21 21 22 23 23 24 25 25 26 26 27 27 28 29 29 30
12 13 13 12 12 12 12 12 12 13 13 13 13 13 14 15 15 15 15 16 17 18 19 20 21 21 21 21 22 23 24 25 25 26 26 27 28 28 29 30 30 31 31
14 14 14 14 13 14 14 14 14 14 14 14 15 15 15 16 17 18 17 17 19 20 21 21 22 22 23 24 25 25 25 26 27 27 28 28 29 30 31 31 32 32 32
16 16 16 15 15 15 15 15 15 15 16 16 17 17 18 19 19 19 19 19 21 22 22 23 24 24 25 25 26 27 27 28 28 29 29 30 30 31 31 31 32 32 33
17 17 17 17 17 17 17 17 17 17 18 18 19 19 19 19 19 20 20 21 22 22 23 24 25 25 26 26 27 27 28 28 29 29 30 30 30 30 30 31 31 32 33
17 17 17 17 17 17 17 18 18 18 18 18 19 19 19 20 20 21 21 21 22 23 24 25 26 26 26 27 27 28 28 28 29 30 30 30 31 31 31 32 32 32 33
17 17 18 18 18 18 18 18 18 17 17 18 19 20 20 21 21 21 22 22 23 24 25 25 25 26 26 27 28 28 28 29 30 30 30 30 31 31 32 33 33 33 34
18 18 18 18 18 18 18 18 18 17 18 19 20 22 22 22 23 23 23 23 24 24 25 25 25 26 27 27 28 29 29 30 30 30 31 31 32 33 34 34 34 35 35
18 17 17 17 17 17 17 17 17 18 18 19 20 21 22 22 22 23 24 24 24 24 24 25 25 26 27 28 29 29 30 30 30 30 31 32 33 34 34 35 35 36 36
16 17 16 16 17 17 16 17 17 18 19 19 20 21 21 21 21 22 23 23 23 24 25 26 27 27 27 28 29 30 30 30 30 31 31 32 33 34 34 35 35 35 35
16 16 16 17 17 17 16 17 18 18 19 19 20 20 20 20 21 22 22 23 24 25 26 27 27 27 27 28 29 29 29 30 30 31 32 33 33 34 34 34 34 34 34